GW4926 Weather Reports


Display with metric or nautical units.
time (UTC)temp
F
wind
direction
speed
MPH
gust
MPH
rain 1hr
in
rain 24hr
in
rain mn
in
humidity
%
barometer
mb
20260510164003 78 245 0.0 1.0 0.00 0.00 0.00 36 1015.0
20260510163505 78 0 0.0 0.0 0.00 0.00 0.00 39 1015.0
20260510163003 78 245 0.0 1.0 0.00 0.00 0.00 42 1015.0
20260510162503 78 0 0.0 0.0 0.00 0.00 0.00 53 1016.0
20260510162004 77 0 0.0 0.0 0.00 0.00 0.00 47 1016.0
20260510161503 77 242 1.0 2.0 0.00 0.00 0.00 46 1016.0
20260510161005 77 212 3.0 3.0 0.00 0.00 0.00 48 1016.0
20260510160505 77 188 1.0 2.0 0.00 0.00 0.00 48 1016.0
20260510160003 77 246 1.0 2.0 0.00 0.00 0.00 47 1016.0
20260510155504 76 270 0.0 0.0 0.00 0.00 0.00 50 1016.0
20260510155004 76 169 1.0 2.0 0.00 0.00 0.00 56 1016.0
20260510154504 76 53 0.0 0.0 0.00 0.00 0.00 50 1016.0
20260510154004 75 187 0.0 0.0 0.00 0.00 0.00 54 1016.0
20260510153503 75 37 0.0 0.0 0.00 0.00 0.00 57 1016.0
20260510153004 76 35 0.0 1.0 0.00 0.00 0.00 57 1016.0
20260510152503 75 37 2.0 2.0 0.00 0.00 0.00 52 1016.0
20260510152003 75 0 0.0 0.0 0.00 0.00 0.00 52 1016.0
20260510151504 74 331 0.0 0.0 0.00 0.00 0.00 55 1016.0
20260510151004 74 22 1.0 2.0 0.00 0.00 0.00 58 1016.0
20260510150503 74 198 0.0 1.0 0.00 0.00 0.00 67 1016.0
20260510150003 73 0 0.0 0.0 0.00 0.00 0.00 62 1016.0
20260510145504 73 0 0.0 0.0 0.00 0.00 0.00 63 1016.0
20260510145003 73 222 1.0 2.0 0.00 0.00 0.00 62 1016.0
20260510144504 72 0 0.0 0.0 0.00 0.00 0.00 70 1016.0
20260510144003 72 0 0.0 0.0 0.00 0.00 0.00 66 1016.0
20260510143503 71 343 0.0 0.0 0.00 0.00 0.00 65 1016.0
20260510143004 71 16 1.0 2.0 0.00 0.00 0.00 66 1016.0
20260510142504 71 0 0.0 0.0 0.00 0.00 0.00 67 1016.0
20260510142004 70 0 2.0 2.0 0.00 0.00 0.00 68 1016.0
20260510141504 70 196 0.0 0.0 0.00 0.00 0.00 69 1016.0
20260510141003 70 56 0.0 0.0 0.00 0.00 0.00 70 1016.0
20260510140503 69 0 0.0 0.0 0.00 0.00 0.00 72 1016.0
20260510140003 69 0 0.0 0.0 0.00 0.00 0.00 76 1016.0
20260510135503 68 43 0.0 1.0 0.00 0.00 0.00 75 1016.0
20260510135004 68 0 0.0 0.0 0.00 0.00 0.00 75 1016.0
20260510134505 67 240 0.0 0.0 0.00 0.00 0.00 79 1016.0
20260510134003 67 29 1.0 2.0 0.00 0.00 0.00 81 1016.0
20260510133504 66 36 1.0 2.0 0.00 0.00 0.00 82 1016.0
20260510133003 66 357 0.0 0.0 0.00 0.00 0.00 82 1016.0
20260510132505 65 222 0.0 0.0 0.00 0.00 0.00 85 1016.0
20260510132004 65 21 0.0 1.0 0.00 0.00 0.00 85 1016.0
20260510131505 64 0 0.0 0.0 0.00 0.00 0.00 88 1016.0
20260510131005 64 0 0.0 0.0 0.00 0.00 0.00 88 1016.0
20260510130505 63 44 0.0 1.0 0.00 0.00 0.00 92 1016.0
20260510130004 63 50 1.0 1.0 0.00 0.00 0.00 95 1016.0
20260510125503 62 0 0.0 0.0 0.00 0.00 0.00 96 1016.0
20260510125003 62 0 0.0 0.0 0.00 0.00 0.00 96 1016.0
20260510124503 62 0 0.0 0.0 0.00 0.00 0.00 97 1015.0
20260510124003 61 60 1.0 1.0 0.00 0.00 0.00 97 1015.0
20260510123504 61 0 0.0 0.0 0.00 0.00 0.00 98 1015.0
20260510123004 60 0 0.0 0.0 0.00 0.00 0.00 98 1015.0
20260510122505 60 62 1.0 1.0 0.00 0.00 0.00 98 1015.0
20260510122003 60 30 0.0 1.0 0.00 0.00 0.00 98 1015.0
20260510121504 59 55 0.0 1.0 0.00 0.00 0.00 98 1015.0
20260510121003 59 0 0.0 0.0 0.00 0.00 0.00 98 1015.0
20260510120503 59 0 0.0 0.0 0.00 0.00 0.00 98 1015.0
20260510120003 59 68 0.0 1.0 0.00 0.00 0.00 98 1015.0
20260510115503 58 0 0.0 0.0 0.00 0.00 0.00 98 1015.0
20260510115003 58 0 0.0 0.0 0.00 0.00 0.00 98 1015.0
20260510114504 58 0 0.0 0.0 0.00 0.00 0.00 98 1015.0
20260510114003 58 0 0.0 0.0 0.00 0.00 0.00 98 1015.0
20260510113504 58 0 0.0 0.0 0.00 0.00 0.00 98 1015.0
20260510113003 58 0 0.0 0.0 0.00 0.00 0.00 98 1015.0
20260510112503 58 0 0.0 0.0 0.00 0.00 0.00 98 1015.0
20260510112004 58 0 0.0 0.0 0.00 0.00 0.00 98 1014.0
20260510111503 58 0 0.0 0.0 0.00 0.00 0.00 98 1014.0
20260510111006 58 0 0.0 0.0 0.00 0.00 0.00 98 1014.0
20260510110503 58 70 0.0 0.0 0.00 0.00 0.00 98 1014.0
20260510110003 58 0 0.0 0.0 0.00 0.00 0.00 98 1014.0
20260510105503 58 0 0.0 0.0 0.00 0.00 0.00 98 1014.0
20260510105004 58 0 0.0 0.0 0.00 0.00 0.00 97 1014.0
20260510104505 58 0 0.0 0.0 0.00 0.00 0.00 98 1014.0
20260510104004 58 0 0.0 0.0 0.00 0.00 0.00 98 1014.0
20260510103503 58 0 0.0 0.0 0.00 0.00 0.00 97 1014.0
20260510103003 58 0 0.0 0.0 0.00 0.00 0.00 97 1014.0
20260510102503 58 0 0.0 0.0 0.00 0.00 0.00 97 1014.0
20260510101515 58 0 0.0 0.0 0.00 0.00 0.00 97 1014.0
20260510101003 58 0 0.0 0.0 0.00 0.00 0.00 97 1014.0
20260510100503 58 0 0.0 0.0 0.00 0.00 0.00 97 1013.0
20260510100003 58 0 0.0 0.0 0.00 0.00 0.00 97 1013.0
20260510095504 58 0 0.0 0.0 0.00 0.00 0.00 97 1013.0
20260510095003 58 0 0.0 0.0 0.00 0.00 0.00 97 1013.0
20260510094503 58 0 0.0 0.0 0.00 0.00 0.00 97 1013.0
20260510094005 58 0 0.0 0.0 0.00 0.00 0.00 97 1013.0
20260510093503 58 0 0.0 0.0 0.00 0.00 0.00 97 1013.0
20260510093003 58 0 0.0 0.0 0.00 0.00 0.00 97 1013.0
20260510092504 58 0 0.0 0.0 0.00 0.00 0.00 97 1013.0
20260510092003 58 0 0.0 0.0 0.00 0.00 0.00 97 1013.0
20260510091503 58 0 0.0 0.0 0.00 0.00 0.00 97 1013.0
20260510091004 58 0 0.0 0.0 0.00 0.00 0.00 97 1013.0
20260510090503 58 0 0.0 0.0 0.00 0.00 0.00 97 1013.0
20260510090004 58 0 0.0 0.0 0.00 0.00 0.00 97 1013.0
20260510085505 58 0 0.0 0.0 0.00 0.00 0.00 97 1013.0
20260510085003 58 0 0.0 0.0 0.00 0.00 0.00 97 1013.0
20260510084504 58 0 0.0 0.0 0.00 0.00 0.00 97 1013.0
20260510084003 58 0 0.0 0.0 0.00 0.00 0.00 97 1013.0
20260510083503 58 0 0.0 0.0 0.00 0.00 0.00 97 1013.0
20260510083006 58 0 0.0 0.0 0.00 0.00 0.00 97 1013.0
20260510082504 58 0 0.0 0.0 0.00 0.00 0.00 97 1013.0
20260510082003 58 70 1.0 1.0 0.00 0.00 0.00 97 1012.0
20260510081503 59 0 0.0 0.0 0.00 0.00 0.00 97 1012.0
20260510081004 59 0 0.0 0.0 0.00 0.00 0.00 97 1012.0
20260510080506 59 0 0.0 0.0 0.00 0.00 0.00 97 1012.0
20260510080004 59 0 0.0 0.0 0.00 0.00 0.00 97 1012.0
20260510075504 59 0 0.0 0.0 0.00 0.00 0.00 97 1012.0
20260510075004 59 0 0.0 0.0 0.00 0.00 0.00 97 1013.0
20260510074503 59 0 0.0 0.0 0.00 0.00 0.00 97 1013.0
20260510074003 59 0 0.0 0.0 0.00 0.00 0.00 97 1012.0
20260510073503 59 0 0.0 0.0 0.00 0.00 0.00 97 1012.0
20260510073004 59 0 0.0 0.0 0.00 0.00 0.00 97 1012.0
20260510072504 59 0 0.0 0.0 0.00 0.00 0.00 97 1012.0
20260510072003 59 0 0.0 0.0 0.00 0.00 0.00 97 1012.0
20260510071503 59 0 0.0 0.0 0.00 0.00 0.00 97 1012.0
20260510071007 59 0 0.0 0.0 0.00 0.00 0.00 97 1012.0
20260510070503 59 1 0.0 0.0 0.00 0.00 0.00 97 1012.0
20260510070003 59 0 0.0 0.0 0.00 0.00 0.00 97 1012.0
20260510065503 59 0 0.0 0.0 0.00 0.00 0.00 97 1012.0
20260510065004 59 0 0.0 0.0 0.00 0.00 0.00 97 1012.0
20260510064503 59 0 0.0 0.0 0.00 0.00 0.00 97 1012.0
20260510064004 59 0 0.0 0.0 0.00 0.00 0.00 97 1012.0
20260510063503 59 0 0.0 0.0 0.00 0.00 0.00 97 1012.0
20260510063004 59 0 0.0 0.0 0.00 0.00 0.00 97 1012.0
20260510062503 59 0 0.0 0.0 0.00 0.00 0.00 97 1012.0
20260510062003 59 0 0.0 0.0 0.00 0.00 0.00 97 1012.0
20260510061503 59 0 0.0 0.0 0.00 0.00 0.00 97 1012.0
20260510061004 59 245 1.0 1.0 0.00 0.00 0.00 96 1012.0
20260510060503 59 244 0.0 1.0 0.00 0.00 0.00 97 1012.0
20260510060006 59 253 0.0 1.0 0.00 0.00 0.00 96 1012.0
20260510055503 59 0 0.0 0.0 0.00 0.00 0.00 96 1012.0
20260510055004 59 0 0.0 0.0 0.00 0.00 0.00 96 1012.0
20260510054504 60 0 0.0 0.0 0.00 0.00 0.00 96 1012.0
20260510054003 60 66 0.0 0.0 0.00 0.00 0.00 96 1012.0
20260510053505 60 0 0.0 0.0 0.00 0.00 0.00 96 1012.0
20260510053004 60 0 0.0 0.0 0.00 0.00 0.00 96 1013.0
20260510052504 60 0 0.0 0.0 0.00 0.00 0.00 96 1013.0
20260510052005 60 0 0.0 0.0 0.00 0.00 0.00 96 1013.0
20260510051503 60 0 0.0 0.0 0.00 0.00 0.00 96 1013.0
20260510051003 60 0 0.0 0.0 0.00 0.00 0.00 96 1013.0
20260510050505 60 0 0.0 0.0 0.00 0.00 0.00 96 1013.0
20260510050004 60 288 0.0 0.0 0.00 0.00 0.00 96 1013.0
20260510045503 60 0 0.0 0.0 0.00 0.00 0.00 96 1013.0
20260510045004 60 0 0.0 0.0 0.00 0.00 0.00 96 1013.0
20260510044503 60 127 0.0 0.0 0.00 0.00 0.00 96 1013.0
20260510044004 60 0 0.0 0.0 0.00 0.00 0.00 96 1013.0
20260510043503 60 0 0.0 0.0 0.00 0.00 0.00 96 1013.0
20260510043004 60 0 0.0 0.0 0.00 0.00 0.00 96 1013.0
20260510042504 60 145 0.0 1.0 0.00 0.00 0.00 96 1013.0
20260510042004 60 220 1.0 1.0 0.00 0.00 0.00 95 1013.0
20260510041503 60 0 0.0 0.0 0.00 0.00 0.00 95 1013.0
20260510041003 60 0 0.0 0.0 0.00 0.00 0.00 95 1013.0
20260510040505 60 0 0.0 0.0 0.00 0.00 0.00 95 1013.0
20260510040004 60 0 0.0 0.0 0.00 0.00 0.00 95 1013.0
20260510035505 60 0 0.0 0.0 0.00 0.00 0.00 95 1013.0
20260510035004 61 0 0.0 0.0 0.00 0.00 0.00 95 1013.0
20260510034504 61 0 0.0 0.0 0.00 0.00 0.00 95 1013.0
20260510034008 61 185 0.0 0.0 0.00 0.00 0.00 95 1013.0
20260510033503 61 0 0.0 0.0 0.00 0.00 0.00 95 1013.0
20260510033003 61 0 0.0 0.0 0.00 0.00 0.00 95 1013.0
20260510032503 61 0 0.0 0.0 0.00 0.00 0.00 95 1013.0
20260510032004 61 0 0.0 0.0 0.00 0.00 0.00 95 1013.0
20260510031505 61 0 0.0 0.0 0.00 0.00 0.00 95 1012.0
20260510031004 61 0 0.0 0.0 0.00 0.00 0.00 95 1012.0
20260510030504 61 0 0.0 0.0 0.00 0.00 0.00 95 1013.0
20260510030004 61 0 0.0 0.0 0.00 0.00 0.00 95 1013.0
20260510025503 61 0 0.0 0.0 0.00 0.00 0.00 94 1012.0
20260510025004 62 224 1.0 1.0 0.00 0.00 0.00 94 1012.0
20260510024503 62 224 1.0 1.0 0.00 0.00 0.00 94 1012.0
20260510024003 62 0 0.0 0.0 0.00 0.00 0.00 94 1012.0
20260510023504 62 0 0.0 0.0 0.00 0.00 0.00 94 1012.0
20260510023004 62 0 0.0 0.0 0.00 0.00 0.00 94 1012.0
20260510022504 62 0 0.0 0.0 0.00 0.00 0.00 93 1012.0
20260510022003 62 0 0.0 0.0 0.00 0.00 0.00 93 1012.0
20260510021504 62 0 0.0 0.0 0.00 0.00 0.00 93 1012.0
20260510021003 62 0 0.0 0.0 0.00 0.00 0.00 93 1012.0
20260510020503 62 0 0.0 0.0 0.00 0.00 0.00 93 1012.0
20260510020004 62 0 0.0 0.0 0.00 0.00 0.00 93 1012.0
20260510015503 63 0 0.0 0.0 0.00 0.00 0.00 93 1012.0
20260510015003 63 230 1.0 1.0 0.00 0.00 0.00 92 1012.0
20260510014503 63 0 0.0 0.0 0.00 0.00 0.00 92 1012.0
20260510014003 63 0 0.0 0.0 0.00 0.00 0.00 91 1012.0
20260510013503 63 0 0.0 0.0 0.00 0.00 0.00 91 1012.0
20260510013004 63 0 0.0 0.0 0.00 0.00 0.00 91 1012.0
20260510012505 64 0 0.0 0.0 0.00 0.00 0.00 91 1012.0
20260510012003 64 228 0.0 1.0 0.00 0.00 0.00 91 1012.0
20260510011503 64 218 1.0 1.0 0.00 0.00 0.00 90 1012.0
20260510011003 64 210 0.0 0.0 0.00 0.00 0.00 89 1011.0
20260510010504 65 0 0.0 0.0 0.00 0.00 0.00 88 1011.0
20260510010003 65 0 0.0 0.0 0.00 0.00 0.00 88 1011.0
20260510005503 65 0 0.0 0.0 0.00 0.00 0.00 87 1011.0
20260510005004 65 0 0.0 0.0 0.00 0.00 0.00 87 1011.0
20260510004503 66 0 0.0 0.0 0.00 0.00 0.00 87 1011.0
20260510004003 66 0 0.0 0.0 0.00 0.00 0.00 87 1011.0
20260510003503 66 191 0.0 0.0 0.00 0.00 0.00 86 1011.0
20260510003003 66 0 0.0 0.0 0.00 0.00 0.00 85 1011.0
20260510002503 67 0 0.0 0.0 0.00 0.00 0.00 86 1011.0
20260510002003 67 87 0.0 0.0 0.00 0.00 0.00 85 1011.0
20260510001503 67 335 0.0 0.0 0.00 0.00 0.00 85 1011.0
20260510001005 68 0 0.0 0.0 0.00 0.00 0.00 84 1011.0
20260510000503 68 0 0.0 0.0 0.00 0.00 0.00 83 1011.0
20260510000003 69 0 0.0 0.0 0.00 0.00 0.00 83 1011.0
20260509235504 69 0 0.0 0.0 0.00 0.00 0.00 82 1011.0
20260509235004 69 0 0.0 0.0 0.00 0.00 0.00 81 1011.0
20260509234504 69 0 0.0 0.0 0.00 0.00 0.00 80 1011.0
20260509234003 70 223 0.0 0.0 0.00 0.00 0.00 80 1011.0
20260509233503 70 0 0.0 0.0 0.00 0.00 0.00 78 1011.0
20260509233004 71 0 0.0 0.0 0.00 0.00 0.00 78 1011.0
20260509232504 71 0 0.0 0.0 0.00 0.00 0.00 77 1011.0
20260509232005 71 224 0.0 1.0 0.00 0.00 0.00 75 1011.0
20260509231504 71 0 0.0 0.0 0.00 0.00 0.00 75 1011.0
20260509231004 72 241 0.0 0.0 0.00 0.00 0.00 75 1011.0
20260509230504 72 241 0.0 1.0 0.00 0.00 0.00 72 1011.0
20260509230005 72 232 0.0 0.0 0.00 0.00 0.00 74 1010.0
20260509225503 72 234 0.0 1.0 0.00 0.00 0.00 71 1010.0
20260509225003 72 238 0.0 1.0 0.00 0.00 0.00 70 1010.0
20260509224504 72 224 0.0 1.0 0.00 0.00 0.00 70 1010.0
20260509224005 72 222 0.0 0.0 0.00 0.00 0.00 70 1010.0
20260509223504 72 0 0.0 0.0 0.00 0.00 0.00 73 1010.0
20260509223003 72 186 0.0 1.0 0.00 0.00 0.00 72 1010.0
20260509222503 72 225 1.0 1.0 0.00 0.00 0.00 70 1010.0
20260509222003 72 244 0.0 1.0 0.00 0.00 0.00 70 1010.0
20260509221504 73 267 0.0 1.0 0.00 0.00 0.00 72 1010.0
20260509221004 73 211 1.0 1.0 0.00 0.00 0.00 70 1011.0
20260509220503 73 0 0.0 0.0 0.00 0.00 0.00 70 1010.0
20260509220004 73 221 0.0 0.0 0.00 0.00 0.00 69 1010.0
20260509215503 73 224 1.0 2.0 0.00 0.00 0.00 69 1011.0
20260509215004 73 47 0.0 0.0 0.00 0.00 0.00 69 1011.0
20260509214503 73 260 0.0 1.0 0.00 0.00 0.00 69 1011.0
20260509214003 73 236 0.0 0.0 0.00 0.00 0.00 69 1010.0
20260509213504 72 0 0.0 0.0 0.00 0.00 0.00 70 1010.0
20260509213007 72 235 0.0 1.0 0.00 0.00 0.00 71 1010.0
20260509212503 73 244 0.0 0.0 0.00 0.00 0.00 71 1010.0
20260509212003 73 199 1.0 1.0 0.00 0.00 0.00 69 1010.0
20260509211503 73 208 2.0 3.0 0.00 0.00 0.00 68 1010.0
20260509211003 73 344 0.0 1.0 0.00 0.00 0.00 68 1010.0
20260509210504 73 233 1.0 2.0 0.00 0.00 0.00 67 1010.0
20260509210004 72 46 1.0 2.0 0.00 0.00 0.00 68 1010.0
20260509205504 72 0 1.0 3.0 0.00 0.00 0.00 69 1010.0
20260509205005 72 233 0.0 2.0 0.00 0.00 0.00 70 1010.0
20260509204503 72 230 2.0 2.0 0.00 0.00 0.00 70 1010.0
20260509204005 72 0 0.0 0.0 0.00 0.00 0.00 70 1011.0
20260509203504 71 223 2.0 3.0 0.00 0.00 0.00 70 1010.0
20260509203005 71 220 2.0 2.0 0.00 0.00 0.00 70 1010.0
20260509202503 71 250 0.0 1.0 0.00 0.00 0.00 70 1010.0
20260509202004 71 56 0.0 0.0 0.00 0.00 0.00 69 1010.0
20260509201503 71 227 0.0 0.0 0.00 0.00 0.00 72 1010.0
20260509201004 71 237 0.0 0.0 0.00 0.00 0.00 72 1010.0
20260509200504 70 225 1.0 2.0 0.00 0.00 0.00 73 1010.0
20260509200005 70 226 1.0 1.0 0.00 0.00 0.00 73 1010.0
20260509195504 71 0 0.0 0.0 0.00 0.00 0.00 73 1011.0
20260509195005 71 222 2.0 3.0 0.00 0.00 0.00 72 1011.0
20260509194503 71 204 0.0 1.0 0.00 0.00 0.00 73 1011.0
20260509194004 71 239 1.0 2.0 0.00 0.00 0.00 70 1011.0
20260509193504 72 221 1.0 1.0 0.00 0.00 0.00 69 1011.0
20260509193003 72 228 1.0 2.0 0.00 0.00 0.00 68 1011.0
20260509192503 71 199 1.0 2.0 0.00 0.00 0.00 69 1011.0
20260509192004 71 233 2.0 3.0 0.00 0.00 0.00 69 1011.0
20260509191503 71 216 2.0 3.0 0.00 0.00 0.00 69 1011.0
20260509191004 71 227 1.0 1.0 0.00 0.00 0.00 69 1011.0
20260509190503 71 229 1.0 2.0 0.00 0.00 0.00 68 1011.0
20260509190004 71 212 3.0 4.0 0.00 0.00 0.00 67 1011.0
20260509185503 72 196 0.0 0.0 0.00 0.00 0.00 66 1011.0
20260509185005 72 254 0.0 1.0 0.00 0.00 0.00 66 1011.0
20260509184503 72 208 1.0 2.0 0.00 0.00 0.00 65 1011.0
20260509184005 73 241 4.0 6.0 0.00 0.00 0.00 63 1011.0
20260509183503 73 251 1.0 2.0 0.00 0.00 0.00 63 1011.0
20260509183003 74 223 2.0 3.0 0.00 0.00 0.00 61 1011.0
20260509182503 74 213 1.0 2.0 0.00 0.00 0.00 62 1011.0
20260509182004 73 208 2.0 4.0 0.00 0.00 0.00 61 1011.0
20260509181503 72 292 1.0 1.0 0.00 0.00 0.00 63 1012.0
20260509181006 71 357 0.0 1.0 0.00 0.00 0.00 63 1012.0
20260509180505 71 229 1.0 2.0 0.00 0.00 0.00 62 1011.0
20260509180004 71 205 1.0 2.0 0.00 0.00 0.00 62 1012.0
20260509175503 72 236 0.0 1.0 0.00 0.00 0.00 61 1012.0
20260509175005 72 354 1.0 2.0 0.00 0.00 0.00 60 1012.0
20260509174504 72 255 2.0 2.0 0.00 0.00 0.00 59 1012.0
20260509174005 72 225 2.0 3.0 0.00 0.00 0.00 61 1012.0
20260509173503 72 226 4.0 6.0 0.00 0.00 0.00 57 1012.0
20260509173003 71 265 0.0 0.0 0.00 0.00 0.00 60 1012.0
20260509172504 71 224 1.0 3.0 0.00 0.00 0.00 58 1012.0
20260509172005 71 23 1.0 2.0 0.00 0.00 0.00 58 1012.0
20260509171503 71 236 2.0 4.0 0.00 0.00 0.00 58 1012.0
20260509171004 70 251 0.0 1.0 0.00 0.00 0.00 61 1012.0
20260509170504 70 229 1.0 2.0 0.00 0.00 0.00 59 1012.0
20260509170005 70 221 2.0 3.0 0.00 0.00 0.00 59 1012.0
20260509165503 70 231 2.0 2.0 0.00 0.00 0.00 59 1012.0
20260509165003 71 217 1.0 2.0 0.00 0.00 0.00 60 1012.0
20260509164504 71 231 2.0 5.0 0.00 0.00 0.00 58 1012.0